Regional Weather Roundup
Issued by NWS Grand Forks, ND

Home | Current Version | Previous Version | Graphics & Text | Print | Product List | Glossary On
Versions: 1 2 3 4 5 6 7 8 9 10 11 12 13 14 15 16 17 18 19 20 21 22 23 24 25 26 27 28 29 30 31 32 33 34 35 36 37 38 39 40 41 42 43 44 45 46 47 48 49 50
000
ASUS43 KFGF 302031
RWRFGF
PRAIRIE TO PINES  WEATHER ROUNDUP
NATIONAL WEATHER SERVICE EASTERN NORTH DAKOTA/GRAND FORKS ND
300 PM CDT THU JUL 30 2015

 **SATELLITE DATA USED TO AUGMENT SKY COVER AT AUTOMATED STATIONS**
 *****  WEATHER ACROSS EASTERN NORTH DAKOTA  *****

CITY           SKY/WX    TMP DP  RH WIND       PRES   REMARKS
GRAND FORKS    MOSUNNY   81  54  39 W16G26    29.99F
GRAND FRKS AFB MOSUNNY   80  56  42 NW15G24   30.00F
GRAND FRKS NWS   N/A     81 N/A N/A NW9         N/A
DEVILS LAKE    MOSUNNY   79  54  41 W24       30.05S
FARGO          MOSUNNY   83  54  36 W17       30.03F
WAHPETON ARPT  PTCLDY    82  50  32 W15G25    30.06S
$$

 ***** WEATHER ACROSS CENTRAL AND WESTERN NORTH DAKOTA  *****

CITY           SKY/WX    TMP DP  RH WIND       PRES   REMARKS
BISMARCK       SUNNY     84  51  31 NW12      30.14F
MINOT          SUNNY     82  50  32 NW21G30   30.12R
JAMESTOWN      SUNNY     81  53  37 NW20G25   30.09S
MINOT AFB      SUNNY     82  50  32 W21G33    30.10S
GARRISON         N/A     80  53  39 NW15      30.14F
WILLISTON      SUNNY     83  43  24 NW14G23   30.18S
DICKINSON      SUNNY     82  46  28 NW9       30.18F
HETTINGER      MOSUNNY   86  42  21 W15       30.20F
$$

 *****  OTHER AIRPORT OBSERVATIONS IN OUR AREA  *****

CITY           SKY/WX    TMP DP  RH WIND       PRES   REMARKS
WALHALLA       FAIR      79  54  41 MISG      29.97F
GRAFTON AIRPOR FAIR      81  55  41 NW18G25   29.99S
VALLEY CITY AR FAIR      81  54  39 NW15G23   30.08S
CANDO          FAIR      79  54  41 NW18G29   30.05F
CAVALIER APRT  FAIR      81  57  44 W16G23    29.97F
GWINNER        FAIR      82  55  39 W13G21    30.09S
SHEYENNE NWR     N/A     83  56  39 NW14      29.95S
ROLLA            N/A     73  54  49 W21G32    30.07S
 ***** THE ABOVE OBSERVATIONS ARE NON NWS ARE NOT QUALITY
       CONTROLLED AND MAY MIS-REPORT RAIN FOR SNOW...
$$

  *****  WEATHER ACROSS NORTHERN MINNESOTA  *****

CITY           SKY/WX    TMP DP  RH WIND       PRES   REMARKS
FLAG ISLAND    SUNNY     77  54  44 W17G29    29.87S
WARROAD        SUNNY     79  59  50 W18G25    29.92S
ROSEAU         SUNNY     79  59  50 W13G24    29.93S
HALLOCK        MOSUNNY   81  48  32 NW18G29   29.95S
THF RVR FALLS  MOSUNNY   79  55  44 NW10G20   29.98F
BAUDETTE       MOSUNNY   79  56  45 W18G26    29.91F
WASKISH        MOSUNNY   79  61  53 W15G21    29.94S
CROOKSTON      MOSUNNY   82  55  39 NW17      30.00S
$$
  *****  WEATHER ACROSS CENTRAL AND WEST MINNESOTA  *****

CITY           SKY/WX    TMP DP  RH WIND       PRES   REMARKS
FOSSTON        MOSUNNY   79  54  41 W20       30.01S
BEMIDJI        PTSUNNY   81  53  38 W18G28    29.99S
PARK RAPIDS    MOSUNNY   82  52  35 W22G41    30.02S
ELBOW LAKE     FAIR      79  60  50 W16       30.07S
WADENA         MOSUNNY   81  54  39 W15G24    30.04F
DETROIT LAKES  SUNNY     79  52  38 W23G30    30.06S
MOORHEAD       MOSUNNY   81  57  44 NW20G26   30.04S
FERGUS FALLS   SUNNY     81  57  44 W20G25    30.05S
MORRIS MN      SUNNY     82  61  47 W9        30.08S
STAPLES        PTSUNNY   79  48  34 NW20G28   30.04S
$$
  *****  WEATHER ELSEWHERE ACROSS MINNESOTA  *****

CITY           SKY/WX    TMP DP  RH WIND       PRES   REMARKS
DULUTH         MOSUNNY   81  53  37 NW15G25   29.94F
INTRNTL FALLS  MOSUNNY   78  57  48 W17G25    29.89F
ELY            PTSUNNY   72  57  60 W12G20    29.90F
CLOQUET        MOSUNNY   81  46  30 W18G28    29.96S
WHEATON        SUNNY     81  57  44 W12       30.09S
BRAINERD       SUNNY     81  52  36 NW18      30.02S
HIBBING        MOSUNNY   79  51  37 W17G28    29.94S
ALEXANDRIA     SUNNY     81  57  43 W15       30.09F
SAINT CLOUD    SUNNY     83  56  39 W14G20    30.05S
MINNEAPOLIS    SUNNY     84  56  38 W18G28    30.05S
$$

  *****  WEATHER ACROSS SOUTH DAKOTA  *****

CITY           SKY/WX    TMP DP  RH WIND       PRES   REMARKS
SIOUX FALLS    MOSUNNY   85  62  46 W9        30.14F
BROOKINGS      SUNNY     82  55  39 W14       30.15F
WATERTOWN      SUNNY     84  54  35 W12       30.13F
HURON          SUNNY     88  52  29 MISG      30.12F
SISSETON         N/A     84  56  38 NW13      30.07F
ABERDEEN       SUNNY     89  51  27 NW16      30.09F
MITCHELL       SUNNY     89  57  33 CALM      30.13F
PIERRE         SUNNY     91  42  18 NW13G21   30.14F
MOBRIDGE       SUNNY     89  50  26 N12       30.11F
RAPID CITY     SUNNY     86  45  23 N7        30.25S
$$

  *****  SOME WEATHER IN NEARBY STATES *****

CITY           SKY/WX    TMP DP  RH WIND       PRES   REMARKS
GLASGOW MT     SUNNY     83  45  26 NW12      30.19F
GREAT FALLS MT SUNNY     83  34  17 SE7       30.25F
CHEYENNE WY    SUNNY     83  42  23 NE8       30.39F
SCOTTSBLUFF NE SUNNY     88  46  23 E9        30.27F
OMAHA NE       MOSUNNY   89  59  36 SW7       30.17F
DES MOINES IA  MOSUNNY   89  53  29 NW17      30.14F
DAVENPORT IA   SUNNY     85  65  51 W9        30.10F
CHICAGO IL     MOSUNNY   87  52  29 NW15G21   30.03F
EAU CLAIRE WI  MOSUNNY   84  56  38 W13       30.01S
LA CROSSE WI   SUNNY     86  55  34 W16       30.03S
$$

  *****  SOME NATIONAL WEATHER *****

CITY           SKY/WX    TMP DP  RH WIND       PRES   REMARKS
LA GUARDIA NY  CLOUDY    79  73  83 S9        29.78F
RALEIGH NC     MOSUNNY   94  72  48 VRB6      29.88F HX 102
ATLANTA GA     PTSUNNY   90  73  58 S7        29.94F THUNDER HX  98
NEW ORLEANS LA PTSUNNY   96  72  45 N7        29.96F HX 104
OKLAHOMA CITY  MOSUNNY   88  72  58 NE13      30.15F HX  94
ALBUQUERQUE NM PTSUNNY   79  56  45 VRB6      30.35F
SALT LAKE CITY MOSUNNY   89  32  13 NW10      30.27F
LOS ANGELES CA MOSUNNY   75  65  70 W12       30.01F
BOISE ID       SUNNY     91  33  12 VRB3      30.21F
SEATTLE WA     SUNNY     87  51  28 NW5G20    30.09F
$$

*** WEATHER ACROSS MANITOBA...SASKATCHEWAN AND ONTARIO ***
                ***ONTARIO***

CITY           SKY/WX    TMP DP  RH WIND       PRES   REMARKS
GERALDTON      PTSUNNY   68  55  64 W12G33    29.70F
THUNDER BAY    PTSUNNY   79  54  41 W17       29.80F
SIOUX LOOKOUT  PTSUNNY   75  55  50 W18G25    29.78F
TORONTO        MOSUNNY   86  54  32 W21G30    29.82S
BIG TROUT LK   RAIN      61  54  77 NW20G36   29.59R
PICKLE LAKE    PTSUNNY   66  57  72 W12       29.70R
DRYDEN         SUNNY     77  55  47 W18G25    29.80F
KENORA         MOSUNNY   75  57  53 W16       29.87S
$$
                *** MANITOBA***

CITY           SKY/WX    TMP DP  RH WIND       PRES   REMARKS
BRANDON        MOSUNNY   77  52  41 W24G36    30.02R
DAUPHIN        MOSUNNY   75  55  50 W24G30    29.94S
ISLAND LAKE    PTSUNNY   72  55  56 W8        29.75R
PILOT MOUND      N/A     73  54  49 NW14G22     N/A
THE PAS        PTSUNNY   63  57  82 NW10      29.89S
THOMPSON       LGT RAIN  66  54  63 N10       29.78F
WINNIPEG       PTSUNNY   77  61  57 W15       29.91F THUNDER
LYNN LAKE        N/A     68  52  56 NW6       29.84
CHURCHILL      PTSUNNY   57  52  82 N20       29.68R
GILLAM         PTSUNNY   66  55  68 NW22G30   29.69F
$$
                ***SASKATCHEWAN***

CITY           SKY/WX    TMP DP  RH WIND       PRES   REMARKS
ESTEVAN        MOSUNNY   77  46  33 NW25G33   30.17R
KINDERSLEY     MOSUNNY   77  45  31 W13G21    30.16F
LLOYDMINSTER   MOSUNNY   72  43  35 NW14G23   30.14S
PRINCE ALBERT  MOSUNNY   75  48  38 NW22G29   30.03S
REGINA         MOSUNNY   75  50  41 NW21      30.15F
YORKTON        MOSUNNY   72  50  46 NW20G35   30.04S
N. BATTLEFORD  MOSUNNY   73  45  35 W16G26    30.13S
LA RONGE       PTSUNNY   72  52  49 W14G22    29.95
SASKATOON      PTSUNNY   75  45  33 W16G26    30.11F
SWIFT CURRENT  PTSUNNY   77  45  31 W16G31    30.19F
$$
NOTE: THESE ARE AUTOMATED STATIONS WITH LIMITED QUALITY CONTROL
      "FAIR" INDICATES FEW OR NO CLOUDS BELOW 12,000 FEET WITH NO
      SIGNIFICANT WEATHER AND/OR OBSTRUCTIONS TO VISIBILITY.
      SKY/WX - SKY CONDITION AND SIGNIFICANT WEATHER.
      TMP - AIR TEMPERATURE.    DP   - DEWPOINT TEMPERATURE.
      RH  - RELATIVE HUMIDITY.  PRES - PRESSURE.
      HX  - HEAT INDEX.         WCI  - WIND CHILL INDEX.
$



USA.gov is the U.S. government's official web portal to all federal, state and local government web resources and services.